This is the latest recevied weather packets stored in our database for station/object IU2PLZ-12. If no packets are shown the sender has not sent any weather packets the latest 10 day(s).
| Time | Temp. | Humidity | Pressure | Rain* | Wind** | Luminosity | Snow |
|---|---|---|---|---|---|---|---|
| 1777846655 | 18.89° C | 33% | 999.6 hPa | - | - | - | - |
| 1777845755 | 18.89° C | 33% | 999.4 hPa | - | - | - | - |
| 1777844855 | 19.44° C | 33% | 999.4 hPa | - | - | - | - |
| 1777843955 | 19.44° C | 32% | 999.4 hPa | - | - | - | - |
| 1777843087 | 19.44° C | 32% | 999.3 hPa | - | - | - | - |
| 1777843055 | 19.44° C | 32% | 999.3 hPa | - | - | - | - |
| 1777842150 | 20° C | 32% | 999.2 hPa | - | - | - | - |
| 1777841250 | 20° C | 31% | 999.2 hPa | - | - | - | - |
| 1777840350 | 20° C | 31% | 999.1 hPa | - | - | - | - |
| 1777839450 | 20.56° C | 31% | 999.1 hPa | - | - | - | - |
| 1777838673 | 20.56° C | 31% | 999 hPa | - | - | - | - |
| 1777838549 | 20.56° C | 31% | 999 hPa | - | - | - | - |
| 1777837649 | 21.11° C | 31% | 998.8 hPa | - | - | - | - |
| 1777836749 | 21.67° C | 30% | 998.7 hPa | - | - | - | - |
| 1777835849 | 21.67° C | 29% | 998.6 hPa | - | - | - | - |
| 1777834949 | 21.67° C | 28% | 998.4 hPa | - | - | - | - |
| 1777834049 | 22.22° C | 28% | 998.3 hPa | - | - | - | - |
| 1777833148 | 22.22° C | 27% | 998.2 hPa | - | - | - | - |
| 1777832248 | 22.78° C | 27% | 998.3 hPa | - | - | - | - |
| 1777831348 | 23.33° C | 26% | 998.2 hPa | - | - | - | - |
| 1777830448 | 23.89° C | 26% | 998.1 hPa | - | - | - | - |
| 1777829547 | 24.44° C | 25% | 998.1 hPa | - | - | - | - |
| 1777828647 | 24.44° C | 24% | 998.1 hPa | - | - | - | - |
| 1777827747 | 25.56° C | 24% | 998.2 hPa | - | - | - | - |
| 1777826847 | 27.22° C | 23% | 998.3 hPa | - | - | - | - |
* Rain since midnight (hover to see other rain measurements)
** Current wind speed in m/s (hover to see current wind gust speed)